Location: �perlecques
(50.8057°N, 2.1521°E)
Time: 12:04:46
(UTC+00:00)

Vanguard 1 Rocket - Pass Details

Date: 03 August 2021
Orbit: 650 x 4226 km, 34.3° (Epoch: 19 September)

Event Time Altitude Azimuth Distance (km) Brightness Sun altitude
Rises 09:12:12 0° 227° (SW) 8,283 12.2 43.2°
Reaches altitude 10° 09:19:12 10° 220° (SW) 6,929 11.9 44.1°
Maximum altitude 09:36:28 33° 167° (SSE) 3,899 11.8 46.4°
Drops below altitude 10° 09:47:01 10° 109° (ESE) 4,254 11.7 47.7°
Sets 09:50:05 0° 99° (E) 4,848 11.7 48.0°
